Weather History for Gainesville, GA

Change the Weather History Date:

Thursday, September 15, 2011

  Actual Average Record
Temperature  
Mean Temperature 73 °F 72 °F  
Max Temperature 84 °F 81 °F 94 °F (1991)
Min Temperature 63 °F 63 °F 42 °F (1937)
Degree Days  
Heating Degree Days 0 0  
Month to date heating degree days 0  
Since 1 July heating degree days 0  
Cooling Degree Days 8 7  
Month to date cooling degree days 140  
Year to date cooling degree days 1466  
Growing Degree Days 23 (Base 50)    
Moisture  
Dew Point 62 °F    
Average Humidity 70    
Maximum Humidity 90    
Minimum Humidity 49    
Precipitation  
Precipitation 0.00 in 0.18 in 1.63 in (1963)
Month to date precipitation 2.32  
Year to date precipitation 38.57  
Sea Level Pressure  
Sea Level Pressure 29.94 in    
Wind  
Wind Speed 5 mph (WNW)    
Max Wind Speed 14 mph    
Max Gust Speed 20 mph    
Visibility 10 miles    
Events      
T = Trace of Precipitation, MM = Missing Value Source: NWS Daily Summary

Daily Weather History Graph

Daily Weather History Graph

Search for Another Location

Airport:

Trip Planner

Search our weather history database for the weather conditions in past years. The results will help you decide how hot, cold, wet, or windy it might be!

Date:

Astronomy

Sep. 15, 2011 Rise Set
Actual Time 7:18 AM EDT 7:42 PM EDT
Civil Twilight 6:53 AM EDT 8:07 PM EDT
Nautical Twilight 6:23 AM EDT 8:36 PM EDT
Astronomical Twilight 5:53 AM EDT 9:06 PM EDT
Moon 9:10 PM EDT (9/15) 10:13 AM EDT (9/15)
Length of Visible Light 13h 14m
Length of Day
12h 24m
Waning Gibbous, 91% of the Moon is Illuminated
Sep 15
Waning Gibbous
Sep 20
Last Quarter
Sep 27
New
Oct 3
First Quarter
Oct 11
Full

Hourly Weather History & Observations

Time (EDT) Temp. Heat Index Dew Point Humidity Pressure Visibility Wind Dir Wind Speed Gust Speed Precip Events Conditions
12:53 AM 71.1 °F - 60.1 °F 68% 29.93 in 10.0 mi NW 3.5 mph - N/A   Clear
1:53 AM 71.1 °F - 62.1 °F 73% 29.91 in 10.0 mi Calm Calm - N/A   Clear
2:53 AM 68.0 °F - 61.0 °F 78% 29.90 in 10.0 mi Calm Calm - N/A   Clear
4:53 AM 68.0 °F - 63.0 °F 84% 29.89 in 10.0 mi Calm Calm - N/A   Clear
5:53 AM 66.0 °F - 63.0 °F 90% 29.90 in 10.0 mi Calm Calm - N/A   Clear
6:53 AM 66.9 °F - 63.0 °F 87% 29.91 in 10.0 mi Calm Calm - N/A   Scattered Clouds
7:53 AM 68.0 °F - 63.0 °F 84% 29.92 in 10.0 mi Calm Calm - N/A   Mostly Cloudy
8:53 AM 69.1 °F - 63.0 °F 81% 29.93 in 10.0 mi NW 4.6 mph - N/A   Mostly Cloudy
9:53 AM 75.0 °F - 62.1 °F 64% 29.93 in 10.0 mi WSW 5.8 mph - N/A   Scattered Clouds
11:53 AM 80.1 °F 81.9 °F 64.9 °F 60% 29.95 in 10.0 mi WNW 11.5 mph - N/A   Clear
12:53 PM 81.0 °F 83.0 °F 66.0 °F 60% 29.94 in 10.0 mi West 11.5 mph 17.3 mph N/A   Mostly Cloudy
1:53 PM 82.0 °F 83.4 °F 64.0 °F 54% 29.94 in 10.0 mi West 12.7 mph 19.6 mph N/A   Mostly Cloudy
2:53 PM 82.9 °F 84.0 °F 63.0 °F 51% 29.93 in 10.0 mi West 8.1 mph 17.3 mph N/A   Scattered Clouds
3:53 PM 82.9 °F 83.7 °F 62.1 °F 49% 29.92 in 10.0 mi WNW 12.7 mph - N/A   Mostly Cloudy
4:53 PM 81.0 °F 82.2 °F 63.0 °F 54% 29.92 in 10.0 mi WNW 9.2 mph - N/A   Clear
5:53 PM 78.1 °F - 63.0 °F 60% 29.93 in 10.0 mi NNW 11.5 mph - N/A   Partly Cloudy
6:53 PM 75.0 °F - 62.1 °F 64% 29.95 in 10.0 mi NNW 13.8 mph - N/A   Clear
8:53 PM 66.0 °F - 57.9 °F 75% 29.99 in 10.0 mi WNW 9.2 mph - N/A   Clear
10:53 PM 64.0 °F - 57.0 °F 78% 30.01 in 10.0 mi NW 6.9 mph - N/A   Clear
11:53 PM 63.0 °F - 57.0 °F 81% 30.02 in 10.0 mi WNW 5.8 mph - N/A   Partly Cloudy